Location: Newark
(42.9858°N, 0.6717°E)
Time: 08:29:28
(UTC+00:00)

N. Korean satellite - Visible Passes

Search period start: 18 October 2019 00:00
Search period end: 28 October 2019 00:00
Orbit: 455 x 508 km, 97.2° (Epoch: 18 October)

Date Brightness Start Highest point End Pass type
(mag) Time Alt. Az. Time Alt. Az. Time Alt. Az.
18 Oct 7.6 05:40:24 10° NNE 05:43:56 53° E 05:47:30 10° S visible
18 Oct 9.6 17:50:49 10° SW 17:53:28 21° W 17:56:08 10° NW visible
19 Oct 9.2 05:15:30 10° NE 05:18:34 26° E 05:21:39 10° SSE visible
20 Oct 10.2 04:51:19 10° ENE 04:53:06 13° E 04:54:54 10° ESE visible
21 Oct 10.2 18:09:27 10° WSW 18:11:03 13° W 18:12:42 10° WNW visible
22 Oct 8.1 05:32:38 10° NNE 05:36:07 42° E 05:39:38 10° S visible
22 Oct 9.1 17:42:40 10° SSW 17:45:34 26° W 17:48:32 10° NW visible
23 Oct 9.6 05:07:52 10° NE 05:10:43 21° E 05:13:34 10° SE visible
24 Oct 10.5 04:44:16 10° ENE 04:45:13 11° E 04:46:09 10° ESE visible
25 Oct 6.9 05:49:57 10° NNE 05:53:37 75° ESE 05:57:17 10° S visible
25 Oct 9.9 18:00:56 10° SW 18:03:07 16° W 18:05:21 10° NW visible
26 Oct 8.6 05:24:52 10° NNE 05:28:15 34° E 05:31:40 10° SSE visible
26 Oct 8.6 17:34:32 10° SSW 17:37:39 32° W 17:40:50 10° NNW visible
27 Oct 9.9 05:00:16 10° NE 05:02:49 18° E 05:05:22 10° SE visible
